Find DMSP F-10

NORAD ID: 20978 Int'l Des: 1990-105 Owner: AFSSD2 Country: US operational
LEOCIRCULARRETROGRADESSO

Live-Position

3D-Globus wird geladen...

Über DMSP F-10

Beschreibung wird geladen...

Nächste Überflüge

Passes for default location (London). Set your location on the main map for personalized predictions.

Höhenverlauf

Loading altitude history...

Zweizeiliger Elementsatz

1 20978U 90105A 26107.13034652 .00000188 00000-0 71739-4 0 9999
2 20978 98.6143 166.7311 0072234 106.9668 253.9453 14.40127056853724
Epoch: 17. Apr. 2026 • Age: 15 hours

Aktueller Status

Höhe 728.3 km
Geschwindigkeit 7.52 km/s
Subsatellitenpunkt 66.43°N, 24.55°E
Startdatum 1. Dez. 1990
Alter 35.3 years
Typ other

Technische Details

Klassifizierung Payload
Masse 773.00 kg
Trockenmasse 773.00 kg
Gesamtmasse 1487.00 kg
Länge 6.90 m
Durchmesser 1.50 m
Spannweite 6.90 m
Form Box + Pan
Hersteller GEEW
Bus-Typ Block 5D
Phasenstatus In Orbit
Besitzer/Staat AFSSD2/US

Most Searched